Starlink 32457

operational
NORAD ID: 61717 Int'l Des: 2024-196 Owner: SPXS Country: US Constellation: starlink
LEOCIRCULAR

Starlink 32457について

説明を読み込み中...

リアルタイム位置

3D地球を読み込み中...

次回通過

高度履歴

Altitude vs Time

uPlot chart will show altitude changes over time

軌道要素

1 61717U 24196L 25305.50946371 -.00003516 00000-0 -10661-3 0 9998
2 61717 53.1605 336.5782 0001260 76.9943 283.1199 15.30204068 57537
Epoch: Nov 1, 2025 • Age: 16 hours

現在のステータス

高度 478.2 km
速度 7.63 km/s
衛星直下点 -10.82°S, 133.97°W
打ち上げ日 Oct 30, 2024
運用期間 1 years
タイプ internet

技術仕様

分類 Payload
質量 730.00 kg
乾燥質量 700.00 kg
総質量 730.00 kg
長さ 0.30 m
直径 4.10 m
スパン 29.00 m
形状 Box + pan
製造者 SPXS
バスタイプ Starlink V2M
フェーズステータス In Orbit
所有者/国 SPXS/US

大規模コンステレーション

Loading constellations...